This demonstration page uses our WeatherBlox Daily Observations layout. Learn more.

Left ArrowRight Arrow

Hourly Observations for April 16, 2021

Temp ( °F °C ) Dew Point ( °F °C ) Humidity (%) Winds ( mph kmh ) Pressure ( in mb ) Visibility ( mi km ) Precip ( " mm )
12:53 am 00:53 Clear 26 -3.3 23 -5 88 88 Calm 30.38 1029 10 16 0.00 0.00
1:53 am 01:53 Clear 26 -3.3 25 -3.9 96 96 Calm 30.39 1029 8 13 0.00 0.00
2:04 am 02:04 Clear with Mist and Fog 24 -4.4 22 -5.6 91 91 Calm 30.47 1032 2 3 0.00 0.00
2:10 am 02:10 Clear with Mist and Fog 26 -3.3 24 -4.4 92 92 Calm 30.46 1031 1 1 0.00 0.00
2:19 am 02:19 Mostly Cloudy with Mist and Fog 26 -3.3 24 -4.4 92 92 WSW 3 6 30.46 1031 1 2 0.00 0.00
2:21 am 02:21 Mostly Clear with Mist and Fog 26 -3.3 24 -4.4 92 92 WSW 3 6 30.46 1031 2 2 0.00 0.00
2:23 am 02:23 Mostly Clear with Mist and Fog 24 -4.4 23 -5 96 96 Calm 30.47 1032 3 5 0.00 0.00
2:53 am 02:53 Clear 22 -5.6 20 -6.7 92 92 WSW 7 11 30.40 1029 10 16 0.00 0.00
3:32 am 03:32 Mostly Clear 21 -6 19 -7 93 93 SW 7 11 30.49 1032 10 16 0.00 0.00
3:53 am 03:53 Mostly Clear 20 -6.7 18 -7.8 92 92 SSW 5 7 30.40 1030 10 16 0.00 0.00
4:29 am 04:29 Mostly Cloudy 21 -6.1 18 -7.8 88 88 WSW 5 7 30.50 1033 10 16 0.00 0.00
4:40 am 04:40 Mostly Cloudy with Mist and Fog 19 -7 18 -8 93 93 WSW 7 11 30.51 1033 2 3 0.00 0.00
4:44 am 04:44 Mostly Cloudy with Mist and Fog 21 -6.1 19 -7.2 92 92 WSW 6 9 30.50 1033 1 1 0.00 0.00
4:51 am 04:51 Cloudy with Mist and Fog 21 -6 19 -7 93 93 SW 5 7 30.50 1033 2 3 0.00 0.00
4:53 am 04:53 Cloudy with Mist and Fog 22 -5.6 20 -6.7 92 92 SW 3 6 30.41 1030 5 8 0.00 0.00
5:05 am 05:05 Cloudy with Mist and Fog 22 -5.6 20 -6.7 92 92 SSW 7 11 30.49 1033 1 2 0.00 0.00
5:11 am 05:11 Mostly Cloudy with Freezing Fog 23 -5 20 -6.7 88 88 SSW 7 11 30.49 1032 0 0 0.00 0.00
5:53 am 05:53 Mostly Cloudy with Mist and Fog 19 -7.2 17 -8.3 92 92 WNW 5 7 30.41 1030 1 1 0.00 0.00
5:57 am 05:57 Cloudy with Mist and Fog 19 -7.2 17 -8.3 92 92 WNW 5 7 30.51 1033 2 2 0.00 0.00
6:03 am 06:03 Cloudy with Mist and Fog 19 -7.2 17 -8.3 92 92 NW 3 6 30.51 1033 3 5 0.00 0.00
6:36 am 06:36 Cloudy with Mist and Fog 19 -7.2 17 -8.3 92 92 WSW 5 7 30.52 1034 1 2 0.00 0.00
6:39 am 06:39 Mostly Cloudy with Freezing Fog 19 -7.2 17 -8.3 92 92 W 3 6 30.52 1034 0 0 0.00 0.00
6:51 am 06:51 Cloudy with Mist and Fog 19 -7 18 -8 93 93 WSW 6 9 30.51 1033 1 2 0.00 0.00
6:53 am 06:53 Cloudy with Mist and Fog 19 -7.2 17 -8.3 92 92 WSW 6 9 30.51 1033 3 4 0.00 0.00
7:00 am 07:00 Cloudy 19 -7.2 17 -8.3 92 92 W 5 7 30.52 1034 10 16 0.00 0.00
7:18 am 07:18 Partly Cloudy 21 -6.1 18 -7.8 88 88 WSW 7 11 30.51 1033 10 16 0.00 0.00
7:53 am 07:53 Partly Cloudy 25 -3.9 23 -5 92 92 WSW 6 9 30.49 1033 9 14 0.00 0.00
7:59 am 07:59 Mostly Cloudy with Mist and Fog 26 -3.3 24 -4.4 92 92 WSW 7 11 30.49 1032 3 4 0.00 0.00
8:06 am 08:06 Partly Cloudy with Mist and Fog 27 -2.8 25 -3.9 92 92 WSW 7 11 30.48 1032 3 5 0.00 0.00
8:53 am 08:53 Mostly Cloudy 31 -0.6 29 -1.7 92 92 W 9 15 30.42 1030 10 16 0.00 0.00
9:53 am 09:53 Cloudy 39 3.9 33 0.6 79 79 SW 12 19 30.41 1030 10 16 0.00 0.00
10:53 am 10:53 Cloudy 48 8.9 33 0.6 56 56 WSW 10 17 30.39 1029 10 16 0.00 0.00
11:53 am 11:53 Sunny 53 11.7 29 -1.7 40 40 WSW 12 19 30.37 1028 10 16 0.00 0.00
12:53 pm 12:53 Cloudy 56 13.3 26 -3.3 32 32 undefined N/A 30.33 1027 10 16 0.00 0.00
1:53 pm 13:53 Partly Cloudy 61 16.1 21 -6.1 21 21 N 16 26 30.30 1026 10 16 0.00 0.00
2:53 pm 14:53 Mostly Sunny 62 16.7 19 -7.2 19 19 NW 13 20 30.30 1026 10 16 0.00 0.00
3:53 pm 15:53 Sunny 62 16.7 17 -8.3 17 17 N 8 13 30.29 1026 10 16 0.00 0.00
4:53 pm 16:53 Sunny 63 17.2 17 -8.3 17 17 N 10 17 30.27 1025 10 16 0.00 0.00
5:53 pm 17:53 Sunny 62 16.7 16 -8.9 17 17 NNE 15 24 30.28 1026 10 16 0.00 0.00
6:53 pm 18:53 Sunny 60 15.6 16 -8.9 18 18 NE 13 20 30.29 1026 10 16 0.00 0.00
7:53 pm 19:53 Sunny 57 13.9 18 -7.8 22 22 NE 8 13 30.28 1025 10 16 0.00 0.00
8:53 pm 20:53 Clear 51 10.6 20 -6.7 29 29 NE 8 13 30.29 1026 10 16 0.00 0.00
9:53 pm 21:53 Cloudy 44 6.7 24 -4.4 45 45 ESE 3 6 30.30 1026 10 16 0.00 0.00
10:53 pm 22:53 Clear 40 4.4 18 -7.8 41 41 Calm 30.30 1026 10 16 0.00 0.00
11:53 pm 23:53 Clear 37 2.8 17 -8.3 44 44 Calm 30.30 1026 10 16 0.00 0.00

Powered by AerisWeather